Overview Statistics Trail Chart Weather Telemetry Raw packets
 

This is the latest recevied weather packets stored in our database for station/object HA2SKA-1. If no packets are shown the sender has not sent any weather packets the latest 10 day(s).

<< 34 35 36 37 38 >>
Time Temp. Humidity Pressure Rain* Wind** Luminosity Snow
1787849402 33.33° C 46% 1018 hPa - - - -
1787848502 33.89° C 44% 1018 hPa - - - -
1787847602 33.89° C 43% 1018 hPa - - - -
1787846702 34.44° C 42% 1017.8 hPa - - - -
1787845802 35.56° C 41% 1017.8 hPa - - - -
1787844902 35° C 43% 1017.9 hPa - - - -
1787844001 34.44° C 43% 1018.1 hPa - - - -
1787843101 34.44° C 43% 1018 hPa - - - -
1787842201 35° C 41% 1017.8 hPa - - - -
1787840414 35° C 41% 1017.7 hPa - - - -
1787839514 36.11° C 40% 1018 hPa - - - -
1787838614 35.56° C 41% 1017.9 hPa - - - -
1787837713 35.56° C 42% 1018.3 hPa - - - -
1787836815 34.44° C 43% 1018.4 hPa - - - -
1787835913 35° C 42% 1018.5 hPa - - - -
1787835013 33.89° C 44% 1018.5 hPa - - - -
1787834113 35.56° C 42% 1018.6 hPa - - - -
1787833213 35° C 43% 1018.7 hPa - - - -
1787832313 34.44° C 43% 1018.8 hPa - - - -
1787831413 34.44° C 43% 1018.9 hPa - - - -
1787830513 34.44° C 43% 1019.2 hPa - - - -
1787829613 34.44° C 43% 1019.3 hPa - - - -
1787828713 33.89° C 43% 1019.5 hPa - - - -
1787827812 33.33° C 44% 1019.7 hPa - - - -
1787826912 33.33° C 45% 1019.8 hPa - - - -

* Rain since midnight (hover to see other rain measurements)
** Current wind speed in m/s (hover to see current wind gust speed)